weather.gov     
National Weather Service

Regional Weather Roundup
NWS Homepage
This page is being discontinued on March 12, 2014.
The same data is available at this site. Please update your bookmarks.
Thank you, and we apologize for the inconvenience.
Please send an email to SR-SRH.Webmaster@noaa.gov with any concerns.


Current Version
Previous Version:    01  02  03  04  05  06  07  08  09  10  11  12  13  14  15  16  17  18  19  20  21  22  23  24  25  26  
[Printable]
747
ASUS45 KCYS 240410
RWRWY

WYOMING REGIONAL WEATHER ROUNDUP
NATIONAL WEATHER SERVICE CHEYENNE WY
1000 PM MDT WED APR 23 2014

NOTE:  "FAIR" INDICATES FEW OR NO CLOUDS BELOW 12,000 FEET
WITH NO SIGNIFICANT WEATHER AND/OR OBSTRUCTIONS TO VISIBILITY.

WYZ001-240500-
YELLOWSTONE NATIONAL PARK

CITY           SKY/WX    TMP DP  RH WIND       PRES   REMARKS
LK YELLOWSTONE   N/A     26  20  77 VRB6      29.95R WCI  19
W YELLOWSTONE  NOT AVBL

$$
WYZ002>013-054>058-071-098>099-240500-
NORTHERN WYOMING

CITY           SKY/WX    TMP DP  RH WIND       PRES   REMARKS
JACKSON        CLOUDY    34  25  69 S15G23    29.99S WCI  24
CODY           PTCLDY    41  21  45 W18G33    29.88R
GREYBULL       CLEAR     45  17  32 NW9       29.86R
WORLAND        CLEAR     40  12  32 SW8       29.87R WCI  34
SHERIDAN         N/A     34   9  35 NW12G18     N/A  WCI  25
BUFFALO        PTCLDY    44  11  26 W17       29.87R
GILLETTE       PTCLDY    33  22  63 W8        29.84R WCI  26
HULETT         FAIR      41  27  56 SW6       29.83
NEWCASTLE      FAIR      43  28  56 N3        29.84

$$
WYZ014>020-022>026-101>103-240500-
CENTRAL WYOMING

CITY           SKY/WX    TMP DP  RH WIND       PRES   REMARKS
BIG PINEY      PTCLDY    26  14  60 VRB5      30.03R WCI  20
PINEDALE       MOCLDY    27  19  74 NW3       30.03S
DUBOIS         FAIR      30  18  59 W29G38    29.91F WCI  15
LANDER         PTCLDY    37  14  38 SW9       29.94R WCI  30
RIVERTON       PTCLDY    38   9  30 W10       29.95R WCI  31
CASPER         PTCLDY    35  21  56 W10       29.91R WCI  27
DOUGLAS        PTCLDY    40  30  67 NW9       29.90R WCI  34

$$
WYZ021-027>030-104>119-240500-
SOUTHERN WYOMING

CITY           SKY/WX    TMP DP  RH WIND       PRES   REMARKS
EVANSTON       PTCLDY    30  16  56 SW10      30.08R WCI  21
FORT BRIDGER   FAIR      32  19  57 W12       30.09R WCI  23
ROCK SPRINGS   CLEAR     34  12  40 W14       30.05R WCI  25
DIXON          FAIR      32  16  51 CALM      30.06R
RAWLINS        CLEAR     35   5  28 W17G25    29.99R WCI  25
SARATOGA       FAIR      30   9  40 W8        30.01R WCI  23
LARAMIE        MOCLDY    35   5  28 NW24G30   29.93R WCI  23
CHEYENNE       CLOUDY    44   6  21 NW17G29   29.91R
TORRINGTON     CLOUDY    47  33  58 N14       29.83R
PINE BLUFFS    CLOUDY    48   9  20 NW26G33   29.86S

$$




U.S. Dept. of Commerce
NOAA National Weather Service
1325 East West Highway
Silver Spring, MD 20910
E-mail: w-nws.webmaster@noaa.gov
Page last modified: May 16, 2007
NATIONAL WEATHER SERVICE: for Safety, for Work, for Fun - FOR LIFE